Torna al catalogo

FENGYUN 1C DEB

AttivoSSO
NORAD 30387·DEBRIS·🇨🇳 China

Lanciato May 10, 1999 da Taiyuan Satellite Launch Center

Loading…

Prossimi Passaggi (prossime 24 ore)

TLE

AggiornatoSource: Space-Track

Epoca: Sep 14, 2026, 07:04 UTC

1 30387U 99025ADA 26257.29448001  .00000291  00000-0  17148-3 0  9992
2 30387  98.6479 269.1040 0001518  82.8467 289.7883 14.15321379 12226

Traccia FENGYUN 1C DEB in tempo reale con AllMySat

Download on the App Store